Starlink 32337

operational
NORAD ID: 61643 Int'l Des: 2024-191 Owner: SPXS Country: US Constellation: starlink
LEOCIRCULAR

Starlink 32337について

説明を読み込み中...

リアルタイム位置

3D地球を読み込み中...

次回通過

高度履歴

Altitude vs Time

uPlot chart will show altitude changes over time

軌道要素

1 61643U 24191Y 26062.38891133 -.00002267 00000-0 -72867-4 0 9992
2 61643 43.0018 190.0118 0001969 293.6714 66.3931 15.27580334 77331
Epoch: Mar 3, 2026 • Age: 35 hours

現在のステータス

高度 487.9 km
速度 7.62 km/s
衛星直下点 -21.39°S, 55.84°E
打ち上げ日 Oct 23, 2024
運用期間 1.3 years
タイプ internet

技術仕様

分類 Payload
質量 730.00 kg
乾燥質量 700.00 kg
総質量 730.00 kg
長さ 0.30 m
直径 4.10 m
スパン 29.00 m
形状 Box + pan
製造者 SPXS
バスタイプ Starlink V2M
フェーズステータス In Orbit
所有者/国 SPXS/US

大規模コンステレーション

Loading constellations...